Regional Weather Roundup
Issued by NWS

Home | Current Version | Previous Version | Graphics & Text | Print | Product List | Glossary On
Versions: 1 2 3 4 5 6 7 8 9 10 11 12 13 14 15 16 17 18 19 20 21 22 23 24 25 26 27 28 29 30 31 32 33 34 35 36 37 38 39 40 41 42 43 44 45 46 47 48 49 50
000
ASUS43 KDMX 011907
RWRIA

WEATHER ROUNDUP FOR IOWA
NATIONAL WEATHER SERVICE DES MOINES IA
200 PM CDT WED JUL 01 2015

NOTE: "FAIR" INDICATES FEW OR NO CLOUDS BELOW 12,000 FEET WITH NO
SIGNIFICANT WEATHER AND/OR OBSTRUCTIONS TO VISIBILITY.

* - THESE STATIONS ARE NOT NWS STATIONS...THUS NOT UNDER NWS
QUALITY CONTROL.  THEY ALSO DO NOT REPORT WEATHER SUCH
AS PRECIPITATION OR FOG.

IAZ001>003-012>014-020>022-031>034-043>046-012000-
   NORTHWEST IOWA

CITY           SKY/WX    TMP DP  RH WIND       PRES   REMARKS
CARROLL *      PTSUNNY   73  66  78 E15       29.92F
CHEROKEE *     PTSUNNY   73  64  73 E8G16     29.94S
DENISON *      CLOUDY    72  66  83 E8        29.90S
LE MARS *      CLOUDY    73  66  78 E12       29.93S
ORANGE CITY *  PTSUNNY   72  63  73 E8        29.95R
SHELDON *      CLOUDY    72  72 100 E10G17    29.94S
SIOUX CITY     PTSUNNY   77  66  68 E9        29.90S
SPENCER        PTSUNNY   70  57  63 E15       29.96S
STORM LAKE *   MOSUNNY   72  63  73 E13       29.95S
$$

IAZ055>058-069>071-079>083-090>094-012000-
   SOUTHWEST IOWA

CITY           SKY/WX    TMP DP  RH WIND       PRES   REMARKS
ATLANTIC *     CLOUDY    75  70  83 NE10      29.90S
AUDUBON *      MOSUNNY   73  66  78 E7        29.93S
CLARINDA *     MOSUNNY   81  72  74 VRB8G15   29.88F HX  84
COUNCIL BLFS * MOSUNNY   79  70  73 E10       29.88S HX  81
CRESTON *      CLOUDY    75  68  78 E12       29.90S
HARLAN  *      PTSUNNY   75  73  94 E12       29.94S
LAMONI         CLOUDY    75  69  81 VRB7      29.88F
RED OAK *      CLOUDY    81  72  74 E9        29.87S HX  84
SHENANDOAH *   SUNNY     82  72  69 E7G15     29.86F HX  87
$$

IAZ047>049-059>061-072>074-084-012000-
   CENTRAL IOWA

CITY           SKY/WX    TMP DP  RH WIND       PRES   REMARKS
AMES           PTSUNNY   74  61  63 NE10      29.94F
ANKENY *       PTSUNNY   72  64  78 VRB7      29.94R
CHARITON *     CLOUDY    75  70  83 SE6       29.91S
DES MOINES     CLOUDY    74  63  68 NE10      29.92S
GRINNELL*      CLOUDY    73  61  64 E7        29.95R
KNOXVILLE *    CLOUDY    73  64  73 NE10      29.90F
MARSHALLTOWN   PTSUNNY   73  59  61 NE9       29.95R
PELLA *        PTSUNNY   73  66  78 E6        29.93S
PERRY *        CLOUDY    72  63  73 E10       29.92F
$$

IAZ004>006-015-016-023>025-035-036-012000-
   NORTH CENTRAL IOWA

CITY           SKY/WX    TMP DP  RH WIND       PRES   REMARKS
ALGONA *       MOSUNNY   68  55  64 E12       29.98S
CLARION *      SUNNY     66  57  72 E10       29.98S
ESTHERVILLE    PTSUNNY   68  55  63 E9        29.98S
FORT DODGE *   CLOUDY    72  57  60 E13       29.96F
MASON CITY     CLOUDY    66  57  72 E7        30.01R
FOREST CITY *  LGT RAIN  63  55  77 E3        29.99S
IOWA FALLS *     N/A     70  55  60 NE9       29.99R
$$

IAZ007>011-017>019-026>030-037>042-050>054-066-012000-
   NORTHEAST IOWA

CITY           SKY/WX    TMP DP  RH WIND       PRES   REMARKS
CEDAR RAPIDS   CLOUDY    70  61  73 E7        29.93F
CHARLES CITY * SUNNY     66  57  72 E7        29.99S
CLINTON *      PTSUNNY   70  57  64 E5        29.98S
DECORAH *        N/A    N/A N/A N/A MISG        N/A
DUBUQUE        PTSUNNY   67  55  65 NE9       29.96F
MONTICELLO *   SUNNY     72  63  73 NE8       29.94F
OELWEIN *      SUNNY     66  57  72 E9        29.98S
WATERLOO       CLOUDY    67  56  67 NE10      29.96R
$$

IAZ064-065-067-068-078-012000-
   EAST CENTRAL IOWA

CITY           SKY/WX    TMP DP  RH WIND       PRES   REMARKS
DAVENPORT      PTSUNNY   70  61  73 NE10      29.94F
IOWA CITY      CLOUDY    71  62  73 NE9       29.93F
MT. PLEASANT * CLOUDY    77  63  61 E10       29.90F
MUSCATINE *    SUNNY     73  63  68 NE10      29.92F
QUAD CITIES    PTSUNNY   72  61  68 NE9       29.92F
$$

IAZ062-063-075>077-085>089-095>099-012000-
   SOUTHEAST IOWA

CITY           SKY/WX    TMP DP  RH WIND       PRES   REMARKS
BURLINGTON     CLOUDY    77  69  76 NE12      29.90F
FAIRFIELD *    MOSUNNY   73  66  78 E12       29.91S
FORT MADISON * SUNNY     75  70  83 NE8       29.90F
KEOKUK *       CLOUDY    77  70  78 NE5       29.88F
OSKALOOSA *    PTSUNNY   73  64  73 E8        29.92S
CENTERVILLE *  MOSUNNY   75  68  78 E5        29.90F
OTTUMWA        CLOUDY    75  67  76 E12       29.89R
WASHINGTON *   SUNNY     72  64  78 E13       29.92F
$$

ABBREVIATIONS USED IN REMARKS
   TC - TEMPERATURES IN CELSIUS
  WCI - WIND CHILL INDEX
   HX - HEAT INDEX
  VSB - VISIBILITY
$$



USA.gov is the U.S. government's official web portal to all federal, state and local government web resources and services.